CST,Max TemperatureF,Mean TemperatureF,Min TemperatureF,Max Dew PointF,MeanDew PointF,Min DewpointF,Max Humidity, Mean Humidity, Min Humidity, Max Sea Level PressureIn, Mean Sea Level PressureIn, Min Sea Level PressureIn, Max VisibilityMiles, Mean VisibilityMiles, Min VisibilityMiles, Max Wind SpeedMPH, Mean Wind SpeedMPH, Max Gust SpeedMPH,PrecipitationIn, CloudCover, Events, WindDirDegrees
2013-1-1,22,15,8,10,6,3,76,64,51,30.33,30.26,30.20,10,10,6,14,5,16,0.00,1,,342
2013-1-2,32,20,8,23,15,4,83,73,63,30.25,30.16,30.09,10,10,9,18,9,23,0.00,3,,209
2013-1-3,32,22,11,27,20,8,85,74,62,30.41,30.29,30.17,10,10,8,17,8,26,0.00,5,,294
2013-1-4,37,23,9,24,18,7,88,71,54,30.36,30.30,30.25,10,10,8,22,9,28,0.00,0,,231
2013-1-5,37,29,21,34,28,19,92,87,81,30.24,30.13,30.00,10,8,1,20,10,24,0.03,6,Rain-Snow,213
2013-1-6,31,25,19,22,17,15,84,69,53,30.36,30.23,30.06,10,9,6,20,9,28,0.00,3,,291
2013-1-7,41,30,18,27,22,15,91,73,54,30.33,30.20,30.09,10,10,10,22,11,28,0.00,0,,194
2013-1-8,45,36,26,31,27,22,85,71,57,30.12,30.07,30.00,10,10,10,17,10,22,0.00,1,,192
2013-1-9,50,40,29,34,30,27,89,66,42,30.49,30.36,30.09,10,10,10,16,6,23,0.00,0,,278
2013-1-10,42,37,31,42,34,25,100,77,54,30.45,30.06,29.77,10,5,0,18,8,23,0.57,6,Fog-Rain,116
2013-1-11,55,49,42,50,45,42,100,83,66,29.77,29.71,29.63,10,4,0,22,13,29,0.01,5,Fog,192
2013-1-12,54,38,22,45,25,19,88,74,59,30.05,29.95,29.67,10,6,1,20,11,26,T,5,Snow,319
2013-1-13,22,16,10,18,9,6,92,77,61,30.34,30.15,29.96,10,10,8,17,9,24,T,5,Snow,317
2013-1-14,26,16,5,10,7,3,88,67,46,30.52,30.46,30.36,10,10,10,9,2,12,0.00,0,,293
2013-1-15,28,19,9,15,10,6,96,69,42,30.46,30.35,30.16,10,9,2,8,2,9,0.00,0,,175
2013-1-16,39,26,13,31,20,9,88,72,56,30.16,30.03,29.89,10,10,9,21,9,25,0.00,3,,226
2013-1-17,37,29,21,32,20,14,89,67,45,30.46,30.35,30.13,10,10,10,17,7,22,0.00,2,,333
2013-1-18,48,35,21,34,27,18,81,67,53,30.44,30.17,29.96,10,10,10,30,15,38,0.00,0,,200
2013-1-19,54,41,27,35,30,14,76,61,46,30.19,29.96,29.83,10,10,10,25,14,35,0.00,1,,259
2013-1-20,27,19,11,12,8,5,80,67,54,30.40,30.34,30.22,10,7,2,24,10,35,T,5,Snow,319
2013-1-21,12,7,2,5,-2,-6,83,69,55,30.43,30.37,30.29,10,10,3,21,11,29,0.00,1,,303
2013-1-22,17,8,-1,3,0,-4,72,57,42,30.48,30.38,30.34,10,10,9,9,5,,0.00,5,,314
2013-1-23,34,24,13,17,8,1,67,57,47,30.46,30.29,30.16,10,10,9,23,10,32,0.00,3,,259
2013-1-24,24,16,7,9,1,-4,69,54,39,30.66,30.51,30.29,10,10,10,15,10,21,0.00,1,,90
2013-1-25,41,30,19,21,13,6,69,54,38,30.29,30.15,30.06,10,10,7,20,10,25,0.00,4,,262
2013-1-26,33,22,10,14,9,5,76,58,39,30.43,30.35,30.29,10,10,10,14,6,17,0.00,0,,98
2013-1-27,45,37,28,44,31,15,100,77,53,30.29,30.02,29.84,10,4,1,21,11,28,0.38,7,Rain-Thunderstorm,151
2013-1-28,59,51,43,55,47,43,100,96,92,29.94,29.85,29.71,10,3,0,20,8,26,0.01,8,Fog-Rain,98
2013-1-29,61,49,36,57,50,34,100,93,86,29.69,29.55,29.47,10,6,2,21,11,28,0.80,7,Rain-Thunderstorm,259
2013-1-30,36,27,18,34,23,10,96,84,71,29.85,29.54,29.32,10,5,0,26,14,39,0.30,7,Fog-Rain-Snow,313
2013-1-31,22,13,4,14,3,-4,76,71,66,30.38,30.08,29.85,10,8,2,22,14,32,T,6,Snow,298